Volver al catálogo

MIDAS 4 DEB

ActivoPO
NORAD 194·DEBRIS·🇺🇸 United States

Lanzado Oct 21, 1961 desde Vandenberg Space Force Base

Loading…

Próximos Pases (próximas 24 horas)

TLE

EnvejeciendoSource: Space-Track

Época: Sep 7, 2026, 00:34 UTC

1 00194U 61028C   26250.02398038  .00000019  00000-0  85623-2 0  9995
2 00194  95.8457 266.2955 0421298 101.0921 263.7595  8.70121974 60258

Sigue MIDAS 4 DEB en tiempo real con AllMySat

Download on the App Store